Location: Bakov nad Jizerou
(50.4784°N, 14.9394°E)
Time: 02:43:59
(UTC+00:00)

Cosmos 1727 Rocket - Pass Details

Date: 31 October 2021
Orbit: 960 x 997 km, 82.9° (Epoch: 07 December)

Event Time Altitude Azimuth Distance (km) Brightness Sun altitude
Rises 15:59:39 0° 346° (NNW) 3,668 7.0 -4.2°
Reaches altitude 10° 16:02:14 10° 341° (NNW) 2,713 6.4 -4.6°
Maximum altitude 16:08:07 47° 270° (W) 1,254 5.2 -5.5°
Drops below altitude 10° 16:13:57 10° 198° (SSW) 2,690 6.8 -6.4°
Sets 16:16:31 0° 193° (SSW) 3,633 7.4 -6.7°
